默认 日期 大小 文件数 浏览量 最新下载 xml
van de磁力链接相关资源由用户搜索指令自动获取,结果来源于网络,本站不存储任何资料,亦不承担任何责任,请于24小时内删除,搜索到2466个磁力,用时16ms。
    {"VIDEO_TS": {"VIDEO_TS.BUP": 14336, "VIDEO_TS.IFO": 14336, "VIDEO_TS.VOB": 884736, "VTS_01_0.BUP": 77824, "VTS_01_0.IFO": 77824, "VTS_01_0.VOB": 27666432, "VTS_01_1.VOB": 1073739776, "VTS_01_2.VOB": 1073739776, "VTS_01_3.VOB": 1073739776, "VTS_01_4.VOB": ...
创建时间: 2018-11-25 18:58:35 大小:4.59 GB 文件数量:18 热度:16 最近下载:2025-09-20 02:55:02
    ... en Boris en het Geheim van de Tempel (2012) DVDRip NL gesproken ...
创建时间: 2018-11-26 03:02:40 大小:706.01 MB 文件数量:9 热度:8 最近下载:2025-01-19 00:42:03
    {"DMT.png": 80195, "DMT NFO, Read before Playing.txt": 1768, "TinkerBell-Het Geheim van de Vleugels (2012) DVDR(xvid) NL Gespr DMT.avi": 805358204}
创建时间: 2018-11-26 12:02:40 大小:768.13 MB 文件数量:3 热度:12 最近下载:2025-09-15 17:11:09
    ... ": 323001, "073_Boekgegevens.mp3": 374828, "Godin Van De Wraak.jpg": 6453, "001_Producentgegevens.mp3 ...
创建时间: 2018-11-26 22:27:45 大小:406.26 MB 文件数量:77 热度:11 最近下载:2024-12-16 23:53:03
    {"dmt4.png": 80195, "jojo.png": 65806, "DMT NFO, Read before Playing.txt": 1644, "Steel, Danielle - De ring van de hartstocht.epub": 603683}
创建时间: 2018-11-27 04:14:16 大小:733.72 KB 文件数量:4 热度:9 最近下载:2025-08-01 10:09:12
    {"VIDEO_TS": {"VIDEO_TS.BUP": 6144, "VIDEO_TS.IFO": 6144, "VTS_01_0.BUP": 55296, "VTS_01_0.IFO": 55296, "VTS_01_1.VOB": 1073739776, "VTS_01_2.VOB": 1073739776, "VTS_01_3.VOB": 1073739776, "VTS_01_4.VOB": 1073739776, "VTS_01_5.VOB": 7485440}, "ernst-bobbie ...
创建时间: 2018-11-28 15:44:47 大小:4.01 GB 文件数量:11 热度:11 最近下载:2025-09-18 22:58:07
    {"dmt4.png": 80195, "jojo.png": 65806, "DMT NFO, Read before Playing.txt": 1644, "Prijs van de waarheid - Tess Gerritsen.epub": 331300}
创建时间: 2018-11-28 18:22:49 大小:467.72 KB 文件数量:4 热度:8 最近下载:2023-04-20 07:30:07
    ... [1999].mp3": 8028318, "12 - Van Dik Hout - Stil In Mij ... ].mp3": 10095146, "09 - Acda & De Munnik - Het Regent Zonnestralen [1998 ... [1999].mp3": 9730468, "09 - Van Dik Hout - Laat Het Los ... 8723201, "14 - Trijntje Oosterhuis - De Zee (Amsterdam ArenA Hymne) [1996 ...
创建时间: 2018-11-28 22:47:04 大小:1008.19 MB 文件数量:109 热度:8 最近下载:2023-04-20 08:40:06
    {"In het heetst van de nacht - John Sandford.epub": 725887}
创建时间: 2018-11-29 04:54:55 大小:708.87 KB 文件数量:1 热度:8 最近下载:2025-02-13 19:58:03
    {"dmt4.png": 80195, "jojo.png": 65806, "DMT NFO, Read before Playing.txt": 1681, "Haynes, Elizabeth - In de schaduw van de maan.epub": 1164953}
创建时间: 2018-11-29 12:43:23 大小:1.25 MB 文件数量:4 热度:27 最近下载:2025-08-25 05:50:01
    {"Boudewijn Naar Het Hart Van De Koning S01E03 NL VLAAMS DutchTV.mp4": 341788302, "Boudewijn Naar Het Hart Van De Koning S01E03 NL VLAAMS DutchTV.nfo": 2269}
创建时间: 2018-12-03 01:00:55 大小:325.96 MB 文件数量:2 热度:9 最近下载:2025-01-25 20:37:02
    {"De Vloek Van De Schaduw - Alexey Pehov.epub": 1089143}
创建时间: 2018-12-03 01:58:06 大小:1.04 MB 文件数量:1 热度:7 最近下载:2023-04-20 23:40:02
    {"Morton, Kate - Het geheim van de zusters.epub": 4944327}
创建时间: 2018-12-03 08:14:10 大小:4.72 MB 文件数量:1 热度:8 最近下载:2024-04-09 20:47:02
    {"De Stilte Van De Hel - McFayden, Cody.epub": 915181}
创建时间: 2018-12-03 17:15:43 大小:893.73 KB 文件数量:1 热度:8 最近下载:2024-12-18 22:58:02
    ... 19 - France Gall - Poupee De Cire Poupee De Son.mp3": 6739479, "01 ... - Rob De Nijs & The Lords - Ritme Van De Regen.mp3": 6688281 ... , "25 - Boudewijn De Groot - Het Land Van Maas En Waal.mp3 ... Specks.mp3": 7520208, "02 - Van Morrison - Brown Eyed Girl.mp3 ...
创建时间: 2018-12-04 07:00:17 大小:1.87 GB 文件数量:281 热度:9 最近下载:2025-08-15 08:43:01
    ... en de Relieken van de Dood.txt": 1316}, "COVER": {"Harry Potter en de Relieken van de ... Potter en de Relieken van de Dood": {"01 - Harry Potter en de Relieken van de Dood ... .mp3": 68643152, "02 - Harry Potter en de Relieken van de ...
创建时间: 2018-12-04 10:25:58 大小:1.26 GB 文件数量:25 热度:11 最近下载:2025-05-23 09:37:01
    {"dmt4.png": 80195, "jojo.png": 65806, "DMT NFO, Read before Playing.txt": 1618, "David Hewson - Dans van de doden.epub": 1710426}
创建时间: 2018-12-04 23:18:42 大小:1.77 MB 文件数量:4 热度:10 最近下载:2025-02-11 03:12:02
    ... , "Terry Goodkind - 07. De Zesde Wet van de Magie - Zuster van de Duisternis.epub": 1172924 ... , "Terry Goodkind - 02. De Eerste Wet van de ...
创建时间: 2018-12-05 18:46:28 大小:21.7 MB 文件数量:15 热度:7 最近下载:2024-11-01 04:30:01
    {"dmt4.png": 80195, "jojo.png": 65806, "DMT NFO, Read before Playing.txt": 1618, "Cody Mcfadyen - Het gezicht van de dood.epub": 774462}
创建时间: 2018-12-05 19:33:34 大小:900.47 KB 文件数量:4 热度:11 最近下载:2025-06-19 21:06:02
    {"dmt4.png": 80195, "jojo.png": 65806, "DMT NFO, Read before Playing.txt": 1618, "Bernard Cornwell - 3. Excalibur.epub": 494919, "Bernard Cornwell - 1. De winterkoning.epub": 515575, "Bernard Cornwell - 2. De vijand van God.epub": 494876}
创建时间: 2018-12-06 01:38:21 大小:1.58 MB 文件数量:6 热度:10 最近下载:2025-02-07 16:50:01